Theta_e
321 321 321 322 321 321 320 319 320 320 320 319 319 317 317 317 315 301 297 304 309 317 318 308 301 302 303 300 300 297 287 284 286 287 288 292 292 295 294 295 296 298 297 306 313
321 321 321 322 321 320 319 318 319 319 319 318 318 315 316 315 303 297 306 313 315 316 305 299 298 301 296 296 296 291 285 287 289 287 288 290 292 291 291 292 294 298 307 310 310
321 321 321 321 321 319 318 318 319 319 318 317 315 315 315 309 298 295 311 312 313 312 306 300 299 300 294 295 293 291 289 290 290 291 291 291 290 292 290 288 289 295 304 307 307
320 320 320 321 320 319 317 318 318 319 317 316 315 315 314 301 289 298 315 316 314 308 301 298 296 292 291 290 294 289 292 292 293 292 291 289 291 290 289 289 294 300 306 306 305
320 320 320 320 319 318 317 317 317 319 316 315 314 314 303 294 292 301 312 309 304 301 298 295 293 292 289 292 293 290 291 293 292 292 290 291 288 288 288 290 293 299 304 304 305
319 319 319 319 319 319 316 317 316 317 315 314 314 311 298 290 298 301 302 303 302 300 296 297 294 294 291 290 289 291 292 291 292 292 292 289 288 288 287 290 291 294 295 300 303
319 318 318 318 318 318 316 317 315 315 312 312 311 300 294 291 297 301 302 301 302 301 298 298 298 295 293 290 293 291 288 289 290 292 291 291 288 287 289 291 290 292 293 294 296
318 318 317 317 317 316 316 316 315 312 312 313 311 296 289 298 296 301 302 301 304 303 300 299 300 296 294 293 291 287 286 282 289 291 291 290 284 289 290 290 290 290 292 293 295
318 317 317 317 315 315 316 315 313 311 310 308 299 297 289 303 298 300 301 299 301 302 301 301 299 292 292 288 284 286 280 282 285 290 289 288 285 290 290 291 288 289 290 291 292
318 317 317 316 315 315 315 314 313 312 303 298 297 295 295 292 297 298 299 301 299 299 299 297 293 289 287 285 279 280 280 284 284 286 286 285 286 287 288 288 286 287 288 290 291
318 317 315 315 315 314 306 305 302 295 293 290 290 293 294 297 299 298 300 298 299 297 288 292 286 282 283 284 285 285 283 282 285 287 284 284 283 284 286 287 285 286 287 289 290
318 317 314 314 314 314 306 298 296 296 288 294 293 294 295 296 294 296 299 295 292 287 293 288 283 287 289 289 287 286 282 281 285 287 284 282 281 284 286 285 285 285 286 288 289
316 314 312 312 312 305 299 297 302 300 290 291 292 293 293 296 291 292 295 294 288 286 285 285 285 289 289 284 285 281 280 279 280 283 284 281 279 282 284 286 286 286 286 287 288
314 311 310 312 306 300 297 302 302 299 281 286 290 292 295 295 290 296 295 292 289 283 286 284 288 288 285 282 283 281 282 282 280 275 274 279 269 278 281 282 284 284 284 284 286
311 310 311 311 299 297 300 302 300 297 271 288 289 296 295 291 291 292 295 294 287 283 285 282 282 282 281 282 284 280 283 280 279 271 270 273 267 275 281 279 281 282 284 284 285
310 310 309 304 300 299 302 301 297 280 269 279 289 288 288 290 290 292 292 293 291 286 284 282 286 284 282 284 283 284 279 279 277 271 264 265 269 274 277 280 280 282 283 285 285
309 309 305 304 296 301 301 296 279 273 282 278 282 286 283 283 286 287 286 284 282 276 277 281 280 283 285 280 283 280 272 265 269 265 266 262 268 273 279 281 282 281 282 283 285
308 307 303 300 299 298 296 284 273 276 276 286 285 284 281 282 282 283 282 279 283 281 275 270 271 278 283 280 278 277 272 268 261 265 268 263 266 274 280 282 283 283 283 284 284
310 302 297 297 299 297 288 274 274 280 285 283 283 277 276 281 280 280 278 278 280 280 274 271 274 280 281 281 279 276 268 276 263 257 262 267 273 278 279 278 281 281 281 281 283
302 296 294 297 297 292 282 278 276 286 287 285 279 279 270 274 277 275 277 282 280 281 280 277 268 275 280 281 279 276 278 267 266 259 258 265 263 273 272 273 274 278 277 278 280
298 287 297 297 294 284 274 271 278 287 288 283 280 275 279 275 277 276 276 281 282 281 282 277 270 271 277 270 270 271 269 270 270 271 263 261 269 273 271 272 274 274 277 272 273
293 280 295 295 281 280 272 276 287 285 288 285 283 281 278 279 278 272 278 279 284 280 279 280 278 268 272 278 279 278 274 275 267 263 265 268 268 272 273 273 274 275 275 273 272
287 286 295 292 274 272 276 278 283 283 283 282 281 283 282 273 272 278 279 284 284 281 280 280 270 262 269 273 277 274 277 277 272 275 265 266 271 269 269 268 269 273 272 274 271
289 277 281 284 282 279 274 276 278 285 283 283 283 283 280 273 278 272 279 282 283 282 288 284 278 268 267 269 271 270 275 277 275 266 270 272 273 271 271 270 270 272 271 272 271
285 278 280 273 277 279 281 280 279 276 282 283 279 281 278 271 275 270 278 280 282 286 282 280 267 274 272 273 271 271 269 274 272 274 273 275 274 276 275 276 276 275 269 269 274
282 280 280 276 282 280 282 280 279 279 281 280 277 280 281 271 277 276 279 279 279 280 280 280 266 268 265 275 276 272 274 273 276 277 276 277 276 277 269 268 270 272 270 269 272
287 286 287 282 281 278 279 280 280 281 282 283 282 280 279 281 281 282 282 282 281 279 278 273 266 261 261 268 265 265 267 272 272 269 276 272 276 268 267 267 270 273 269 271 273
Wind_Speed
11 12 14 15 15 15 15 15 15 13 11 9 7 6 8 7 7 2 6 5 7 14 10 7 4 4 2 2 3 3 5 2 5 5 1 4 5 7 1 4 5 4 2 7 11
11 11 12 14 14 14 15 15 14 14 10 8 5 6 8 8 0 8 4 9 9 10 5 6 1 1 1 2 2 5 4 1 4 4 3 3 6 3 4 1 5 6 7 10 8
8 11 12 13 14 14 14 14 14 12 9 6 5 5 6 5 3 2 9 9 9 7 4 3 5 1 1 3 1 1 3 1 4 3 5 3 3 6 3 3 2 8 11 9 7
7 7 10 12 13 15 14 14 13 10 7 6 5 6 6 1 3 3 8 9 7 6 5 3 3 2 2 3 1 4 4 2 3 3 3 3 6 5 1 3 6 12 13 9 8
7 8 8 10 12 14 15 13 12 9 6 5 5 6 2 4 2 6 8 9 5 4 2 2 1 1 1 5 3 2 2 5 2 2 2 2 2 3 4 3 6 10 10 10 9
7 6 8 9 12 13 15 13 11 8 6 6 5 3 2 4 4 6 6 4 5 4 2 5 2 3 2 3 3 1 4 4 2 1 2 2 2 3 0 6 7 7 8 8 9
7 6 7 9 12 13 16 14 10 7 5 5 4 1 6 3 3 6 6 0 3 2 2 2 3 3 2 3 1 3 3 2 4 4 0 1 2 3 5 3 6 6 6 6 6
7 6 7 8 11 13 15 14 8 5 6 5 4 1 3 2 3 6 6 3 3 3 2 3 3 3 3 2 2 2 2 2 2 7 2 3 1 3 6 5 5 6 5 5 3
7 6 6 7 10 12 14 13 5 6 4 6 2 1 2 1 3 4 4 3 6 1 1 3 2 3 3 3 4 5 2 3 1 4 4 1 1 3 3 5 7 7 8 7 7
6 5 5 9 8 12 15 6 5 6 3 3 2 3 5 4 4 5 4 4 2 3 3 3 4 3 5 5 3 2 1 1 3 3 4 2 5 4 6 9 7 8 7 7 7
6 3 4 8 9 12 7 1 3 5 9 3 2 1 2 7 3 5 4 6 4 5 3 4 8 3 1 2 1 2 1 2 3 1 2 1 2 3 3 8 8 7 7 8 7
4 1 5 8 11 12 3 5 2 1 5 3 2 3 1 2 3 10 9 4 6 3 3 7 4 2 3 4 3 5 3 2 1 2 3 5 4 1 4 4 6 7 7 7 6
4 2 6 10 10 4 5 3 3 3 4 4 2 3 3 5 3 7 6 3 5 5 5 5 1 4 3 6 5 4 3 2 1 7 2 5 4 3 2 6 8 7 5 5 6
5 6 7 11 3 2 3 4 3 2 6 8 5 4 3 2 4 2 2 2 6 3 3 5 5 3 5 4 3 2 3 2 3 5 3 4 6 5 5 5 5 6 7 6 6
7 5 7 9 1 4 4 6 4 3 6 4 5 3 4 4 1 6 2 4 4 3 4 3 3 5 5 1 2 2 3 4 3 4 5 5 5 8 8 4 4 5 6 6 6
7 5 7 4 4 1 6 5 3 9 2 6 5 5 3 6 3 4 2 5 3 4 6 2 1 3 1 2 3 3 4 7 4 4 4 5 5 6 7 8 5 4 6 7 7
9 10 5 2 1 5 4 3 8 8 4 7 4 4 2 5 4 5 4 4 2 5 4 4 2 3 4 2 4 6 6 5 6 5 7 4 2 11 2 6 8 8 7 6 6
6 4 4 3 4 4 3 8 9 4 5 2 2 1 4 5 4 6 3 3 5 3 3 4 7 3 6 3 2 1 6 7 6 2 5 4 7 7 4 8 9 8 7 6 6
8 2 3 5 5 2 7 7 8 6 2 2 2 6 5 3 2 5 3 2 3 4 6 4 4 1 4 3 3 3 1 2 8 2 5 4 7 5 3 5 7 8 7 4 3
2 3 3 7 5 5 7 4 2 2 4 2 2 3 2 4 3 5 2 3 2 3 2 2 3 2 3 1 2 5 1 5 4 1 5 7 7 8 8 9 4 8 7 4 1
3 5 4 5 4 8 4 4 2 2 3 3 1 2 2 1 1 2 0 2 1 2 2 4 6 6 3 3 7 2 2 2 3 4 6 2 9 6 9 9 11 8 7 7 6
3 4 5 4 7 3 3 2 3 2 4 2 1 2 3 2 1 0 3 4 3 4 4 2 5 3 9 3 2 3 6 5 6 7 3 2 13 2 7 8 9 9 8 6 6
3 2 3 5 4 3 5 3 2 3 2 3 3 3 3 2 2 2 1 1 1 1 4 3 2 4 8 4 4 4 5 4 3 2 7 5 11 2 4 2 5 9 8 7 4
4 3 6 6 2 7 4 1 2 3 2 2 0 2 1 4 0 3 2 2 1 1 1 1 3 8 9 9 5 4 5 6 6 3 4 13 13 5 6 7 6 8 7 6 6
4 2 5 2 4 3 3 6 2 1 1 1 4 3 4 1 2 2 3 0 1 2 0 3 5 1 5 9 6 6 5 10 11 11 10 26 14 10 12 15 16 9 4 4 7
4 4 4 2 1 2 1 5 6 3 5 2 3 1 4 4 4 2 1 2 4 1 3 1 4 3 7 8 6 8 10 11 17 20 18 23 29 7 2 4 5 9 7 7 8
1 2 4 3 1 4 3 4 5 5 3 2 3 2 2 5 1 3 1 1 1 6 6 4 4 4 8 4 6 9 11 18 8 3 12 16 19 4 1 4 6 9 7 9 9
Wind_Direction
6 7 3 2 1 360 359 355 351 349 346 353 341 341 333 334 330 18 47 306 313 318 322 284 294 259 334 57 12 55 61 325 337 31 134 12 56 348 176 85 62 20 105 138 134
358 1 5 358 357 358 355 354 349 342 344 356 359 353 340 335 89 59 296 328 322 321 349 9 308 177 358 124 358 83 96 60 338 10 13 53 64 10 38 348 67 56 63 105 115
353 354 355 358 353 353 354 351 348 346 343 359 3 352 337 328 66 1 334 335 332 319 265 298 295 295 150 94 147 231 135 15 26 34 351 18 39 311 19 68 254 171 155 144 140
335 356 354 351 354 349 349 351 348 349 346 346 356 346 330 283 139 337 343 326 321 301 321 288 336 11 118 132 98 111 73 59 16 9 18 32 304 343 293 168 148 150 159 150 163
323 339 349 347 349 346 344 348 348 347 340 335 353 350 336 67 85 325 342 324 321 311 318 339 284 294 31 133 98 97 115 76 139 75 100 330 264 245 263 127 117 124 150 165 173
312 331 334 346 345 346 339 344 344 341 333 329 343 4 360 98 266 337 337 16 4 355 317 24 15 300 68 68 94 138 102 130 77 77 53 30 276 3 100 116 127 130 164 182 182
294 317 333 339 341 340 335 334 336 332 334 339 336 42 50 128 2 351 348 306 304 28 27 358 337 44 13 98 215 121 84 73 9 352 323 61 35 221 212 148 142 141 149 134 153
275 296 318 334 333 330 332 323 323 323 321 318 334 59 85 247 357 351 349 51 0 14 65 308 349 93 55 114 64 109 49 90 332 359 321 57 242 228 187 156 188 162 129 114 121
261 276 311 323 330 326 318 309 308 321 313 311 316 199 38 309 40 318 50 347 314 320 297 292 45 110 39 81 27 11 197 159 282 21 324 147 207 330 337 15 50 69 77 68 53
240 261 316 321 334 323 313 292 301 304 288 256 37 55 17 339 326 335 341 333 356 333 1 28 55 76 33 59 194 265 244 250 145 327 354 277 272 31 10 82 90 84 75 65 54
217 241 309 312 326 327 342 13 23 7 44 59 306 78 7 309 291 3 349 339 348 33 60 6 66 78 22 359 277 273 93 97 129 333 343 299 6 4 40 67 72 66 65 53 45
182 325 325 323 326 327 340 69 69 146 80 35 78 70 32 351 351 359 1 56 55 63 8 26 74 351 309 338 38 27 66 8 50 19 21 3 317 144 88 68 85 96 73 66 38
99 11 344 334 329 6 67 65 330 347 94 22 27 49 316 358 51 332 13 70 81 46 22 104 256 307 63 30 48 39 69 26 242 329 341 350 332 162 57 88 71 59 81 68 71
85 34 0 327 21 326 48 336 332 330 79 331 355 359 350 2 44 296 3 88 37 141 62 76 350 41 62 67 38 129 341 64 22 51 232 66 270 232 186 113 81 73 63 65 64
68 36 358 23 236 56 298 324 324 52 65 313 325 291 299 76 261 350 303 40 75 66 83 263 22 39 64 355 357 139 45 57 72 79 53 331 72 276 143 155 154 115 94 79 67
61 27 343 18 57 323 322 328 40 43 304 333 320 346 23 8 32 312 30 52 137 84 40 102 340 54 38 49 50 82 58 32 46 86 17 257 125 264 193 182 161 132 99 87 72
79 55 63 40 12 318 332 50 38 89 323 308 340 7 80 360 11 19 18 27 90 59 359 354 30 13 20 55 357 60 54 352 356 10 223 318 31 244 226 156 151 143 112 85 76
58 74 77 73 331 345 56 50 67 245 230 262 304 3 68 4 15 342 24 41 27 50 105 106 331 23 351 36 246 67 139 154 203 237 261 13 237 262 140 110 115 103 103 76 69
319 7 38 333 346 33 67 51 188 203 286 329 40 60 332 10 94 43 42 104 49 39 127 86 298 22 46 1 70 286 37 151 96 66 46 239 289 298 165 127 120 114 96 86 70
85 68 1 318 1 52 71 185 189 331 347 309 140 141 181 293 42 68 8 322 83 50 132 168 8 255 278 45 29 149 288 37 357 9 285 292 278 237 224 206 202 148 155 171 242
38 51 268 338 58 46 107 205 254 240 29 48 77 54 87 228 332 335 151 349 75 159 111 125 102 290 47 190 182 20 336 22 124 157 181 260 262 205 218 199 183 181 186 205 228
92 43 310 12 53 62 86 182 290 358 12 9 35 98 159 185 174 159 238 183 329 152 160 185 139 218 227 178 147 182 197 167 130 275 235 157 268 232 250 216 181 185 203 226 221
95 221 336 77 91 8 322 340 48 40 28 6 44 44 88 168 16 251 270 246 250 143 174 165 321 5 339 350 348 213 205 161 144 118 218 151 263 331 347 138 222 179 216 235 250
81 32 335 38 134 125 131 302 350 342 335 65 344 61 143 7 215 237 253 231 191 138 188 103 201 169 198 210 158 215 204 201 160 148 207 232 271 244 239 217 227 232 231 236 251
36 227 178 282 328 92 130 157 155 321 294 163 349 216 171 189 325 256 250 245 196 219 315 126 217 203 265 237 221 232 176 204 200 213 200 262 222 268 210 207 211 210 220 255 263
119 124 359 165 298 147 91 205 174 243 152 248 162 206 187 178 200 272 169 217 222 135 175 57 270 94 285 280 280 280 236 223 234 242 248 258 275 172 327 91 156 205 213 230 246
308 24 99 297 112 88 229 177 216 148 214 117 174 128 235 238 301 304 241 237 230 170 198 153 132 66 265 339 340 308 221 205 212 212 217 234 250 169 230 233 205 207 194 222 235